Tracking 31080 objects as of 20-Jul-2025
HD Live streaming from Space Station
objects crossing your sky now

SL-16 DEB

Track SL-16 DEB now!
10-day predictions


NORAD ID: 29105
Int'l Code: 2004-021G
Perigee: 782.6 km
Apogee: 1,044.8 km
Inclination: 70.9 °
Period: 103.1 minutes
Semi major axis: 7284 km
RCS: 0.0109 m2 (small)
Launch date: June 10, 2004
Source: Commonwealth of Independent States (former USSR) (CIS)
Launch site: TYURATAM MISSILE AND SPACE COMPLEX (TTMTR)

Note: This is SATELLITE DEBRIS
Your satellite tracking list
Your tracking list is empty




NASA's NSSDC Master Catalog

Two Line Element Set (TLE):
1 29105U 04021G   25200.80401262  .00002285  00000-0  14749-2 0  9990
2 29105  70.9178 235.4412 0179981  14.6227 345.9994 13.96328226607513
Source of the keplerian elements: AFSPC